| time (UTC) | temp F | wind direction | speed MPH | gust MPH | rain 1hr in | rain 24hr in | rain mn in | humidity % | barometer mb |
| 20260502184503 | 57 | 330 | 1.0 | 4.0 | 0.00 | 0.03 | 0.00 | 67 | 1013.3 |
| 20260502184003 | 57 | 346 | 1.0 | 3.0 | 0.00 | 0.03 | 0.00 | 66 | 1013.1 |
| 20260502183503 | 58 | 30 | 1.0 | 4.0 | 0.00 | 0.03 | 0.00 | 65 | 1013.2 |
| 20260502182524 | 58 | 12 | 1.0 | 2.0 | 0.00 | 0.03 | 0.00 | 65 | 1013.3 |
| 20260502182024 | 58 | 82 | 1.0 | 4.0 | 0.00 | 0.03 | 0.00 | 65 | 1013.5 |
| 20260502181503 | 58 | 76 | 1.0 | 4.0 | 0.00 | 0.03 | 0.00 | 65 | 1013.4 |
| 20260502181024 | 58 | 48 | 0.0 | 1.0 | 0.00 | 0.03 | 0.00 | 63 | 1013.3 |
| 20260502180503 | 59 | 48 | 0.0 | 2.0 | 0.00 | 0.03 | 0.00 | 63 | 1013.3 |
| 20260502164003 | 60 | 320 | 1.0 | 3.0 | 0.00 | 0.03 | 0.00 | 61 | 1013.7 |
| 20260502163503 | 60 | 310 | 1.0 | 3.0 | 0.00 | 0.03 | 0.00 | 61 | 1013.9 |
| 20260502163003 | 60 | 304 | 1.0 | 3.0 | 0.00 | 0.03 | 0.00 | 61 | 1014.1 |
| 20260502162524 | 59 | 305 | 1.0 | 3.0 | 0.00 | 0.03 | 0.00 | 62 | 1014.0 |
| 20260502162024 | 59 | 301 | 2.0 | 4.0 | 0.00 | 0.03 | 0.00 | 61 | 1014.1 |
| 20260502161503 | 59 | 298 | 2.0 | 4.0 | 0.00 | 0.03 | 0.00 | 62 | 1013.9 |
| 20260502161004 | 60 | 307 | 1.0 | 4.0 | 0.00 | 0.03 | 0.00 | 62 | 1014.1 |
| 20260502160503 | 60 | 338 | 1.0 | 4.0 | 0.00 | 0.03 | 0.00 | 61 | 1014.0 |
| 20260502152003 | 61 | 312 | 2.0 | 6.0 | 0.00 | 0.03 | 0.00 | 59 | 1014.3 |
| 20260502151524 | 62 | 283 | 1.0 | 6.0 | 0.00 | 0.03 | 0.00 | 56 | 1014.5 |
| 20260502151003 | 62 | 213 | 1.0 | 2.0 | 0.00 | 0.03 | 0.00 | 56 | 1014.6 |
| 20260502150524 | 62 | 209 | 1.0 | 3.0 | 0.00 | 0.03 | 0.00 | 56 | 1014.8 |
| 20260502130503 | 57 | 296 | 1.0 | 4.0 | 0.00 | 0.03 | 0.00 | 67 | 1015.9 |
| 20260502123503 | 57 | 273 | 2.0 | 6.0 | 0.00 | 0.03 | 0.00 | 68 | 1016.3 |
| 20260502123003 | 57 | 280 | 2.0 | 4.0 | 0.00 | 0.03 | 0.00 | 70 | 1016.3 |
| 20260502122503 | 56 | 292 | 2.0 | 6.0 | 0.00 | 0.03 | 0.00 | 70 | 1016.2 |
| 20260502122003 | 56 | 250 | 2.0 | 6.0 | 0.00 | 0.03 | 0.00 | 71 | 1016.3 |
| 20260502121503 | 56 | 235 | 2.0 | 4.0 | 0.00 | 0.03 | 0.00 | 70 | 1016.3 |
| 20260502121004 | 56 | 248 | 2.0 | 4.0 | 0.00 | 0.03 | 0.00 | 71 | 1016.7 |
| 20260502120503 | 56 | 259 | 1.0 | 3.0 | 0.00 | 0.03 | 0.00 | 70 | 1016.5 |
| 20260502115503 | 55 | 274 | 1.0 | 3.0 | 0.00 | 0.03 | 0.00 | 71 | 1016.8 |
| 20260502115003 | 55 | 271 | 2.0 | 3.0 | 0.00 | 0.03 | 0.00 | 70 | 1016.7 |
| 20260502114024 | 55 | 275 | 2.0 | 4.0 | 0.00 | 0.03 | 0.00 | 70 | 1016.9 |
| 20260502113503 | 55 | 269 | 2.0 | 4.0 | 0.00 | 0.03 | 0.00 | 70 | 1016.7 |
| 20260502113004 | 56 | 270 | 2.0 | 7.0 | 0.00 | 0.03 | 0.00 | 70 | 1016.7 |
| 20260502112503 | 56 | 277 | 2.0 | 7.0 | 0.00 | 0.03 | 0.00 | 69 | 1016.7 |
| 20260502112024 | 56 | 261 | 2.0 | 9.0 | 0.00 | 0.03 | 0.00 | 70 | 1016.8 |
| 20260502111503 | 56 | 264 | 2.0 | 9.0 | 0.00 | 0.03 | 0.00 | 70 | 1016.6 |
| 20260502111003 | 55 | 278 | 2.0 | 4.0 | 0.00 | 0.03 | 0.00 | 70 | 1016.7 |
| 20260502110524 | 55 | 255 | 2.0 | 4.0 | 0.00 | 0.03 | 0.00 | 69 | 1016.6 |
| 20260502110004 | 55 | 241 | 2.0 | 4.0 | 0.00 | 0.03 | 0.00 | 70 | 1016.6 |
| 20260502105503 | 55 | 246 | 2.0 | 4.0 | 0.00 | 0.03 | 0.00 | 72 | 1016.7 |
| 20260502105024 | 55 | 260 | 2.0 | 4.0 | 0.00 | 0.03 | 0.00 | 70 | 1016.7 |
| 20260502104503 | 54 | 266 | 2.0 | 4.0 | 0.00 | 0.03 | 0.00 | 72 | 1016.6 |
| 20260502104003 | 54 | 266 | 2.0 | 4.0 | 0.00 | 0.03 | 0.00 | 72 | 1017.0 |
| 20260502103524 | 54 | 275 | 2.0 | 4.0 | 0.00 | 0.03 | 0.00 | 74 | 1017.0 |
| 20260502103003 | 54 | 283 | 2.0 | 4.0 | 0.00 | 0.03 | 0.00 | 74 | 1017.2 |
| 20260502102503 | 54 | 292 | 2.0 | 4.0 | 0.00 | 0.03 | 0.00 | 74 | 1016.9 |
| 20260502102003 | 53 | 286 | 2.0 | 6.0 | 0.00 | 0.03 | 0.00 | 74 | 1017.1 |
| 20260502101503 | 53 | 280 | 3.0 | 6.0 | 0.00 | 0.03 | 0.00 | 75 | 1016.9 |
| 20260502101024 | 53 | 281 | 3.0 | 6.0 | 0.00 | 0.03 | 0.00 | 75 | 1017.0 |
| 20260502100524 | 53 | 274 | 3.0 | 6.0 | 0.00 | 0.03 | 0.00 | 76 | 1017.2 |
| 20260502091503 | 51 | 239 | 2.0 | 4.0 | 0.00 | 0.03 | 0.00 | 83 | 1017.4 |
| 20260502091003 | 51 | 253 | 2.0 | 6.0 | 0.00 | 0.03 | 0.00 | 83 | 1017.4 |
| 20260502090504 | 51 | 266 | 2.0 | 6.0 | 0.00 | 0.03 | 0.00 | 83 | 1017.3 |
| 20260502071503 | 49 | 249 | 1.0 | 3.0 | 0.00 | 0.03 | 0.00 | 91 | 1017.5 |
| 20260502071003 | 49 | 237 | 1.0 | 2.0 | 0.00 | 0.03 | 0.00 | 91 | 1017.4 |
| 20260502070503 | 49 | 229 | 0.0 | 2.0 | 0.00 | 0.03 | 0.00 | 91 | 1017.2 |
| 20260502070003 | 49 | 228 | 1.0 | 3.0 | 0.00 | 0.03 | 0.00 | 91 | 1017.2 |
| 20260502065503 | 49 | 230 | 1.0 | 3.0 | 0.00 | 0.03 | 0.00 | 91 | 1017.5 |
| 20260502065003 | 49 | 238 | 1.0 | 3.0 | 0.00 | 0.03 | 0.00 | 91 | 1017.2 |
| 20260502064524 | 49 | 245 | 1.0 | 3.0 | 0.00 | 0.03 | 0.00 | 91 | 1017.2 |
| 20260502064003 | 49 | 240 | 2.0 | 3.0 | 0.00 | 0.03 | 0.00 | 91 | 1017.3 |
| 20260502063503 | 49 | 238 | 2.0 | 3.0 | 0.00 | 0.03 | 0.00 | 91 | 1017.2 |
| 20260502063003 | 49 | 242 | 1.0 | 3.0 | 0.00 | 0.03 | 0.00 | 91 | 1017.1 |
| 20260502062503 | 49 | 248 | 1.0 | 3.0 | 0.00 | 0.03 | 0.00 | 92 | 1017.2 |
| 20260502062003 | 49 | 243 | 1.0 | 3.0 | 0.00 | 0.03 | 0.00 | 92 | 1017.2 |
| 20260502061503 | 49 | 231 | 1.0 | 4.0 | 0.00 | 0.03 | 0.00 | 92 | 1017.3 |
| 20260502061004 | 49 | 232 | 1.0 | 4.0 | 0.00 | 0.03 | 0.00 | 92 | 1017.1 |
| 20260502060503 | 49 | 237 | 1.0 | 3.0 | 0.00 | 0.03 | 0.00 | 92 | 1017.1 |
| 20260502060003 | 48 | 231 | 1.0 | 2.0 | 0.00 | 0.03 | 0.00 | 92 | 1017.2 |
| 20260502055503 | 48 | 235 | 1.0 | 3.0 | 0.00 | 0.03 | 0.00 | 92 | 1017.2 |
| 20260502055003 | 48 | 235 | 1.0 | 3.0 | 0.00 | 0.03 | 0.00 | 93 | 1017.0 |
| 20260502054503 | 48 | 231 | 1.0 | 3.0 | 0.00 | 0.03 | 0.00 | 93 | 1017.3 |
| 20260502054003 | 48 | 229 | 1.0 | 3.0 | 0.00 | 0.03 | 0.00 | 93 | 1017.2 |
| 20260502053524 | 48 | 230 | 1.0 | 3.0 | 0.00 | 0.03 | 0.00 | 93 | 1017.2 |
| 20260502053003 | 48 | 231 | 1.0 | 3.0 | 0.00 | 0.03 | 0.00 | 93 | 1017.2 |
| 20260502052503 | 48 | 225 | 1.0 | 2.0 | 0.00 | 0.03 | 0.00 | 93 | 1017.2 |
| 20260502052003 | 48 | 220 | 1.0 | 2.0 | 0.00 | 0.03 | 0.00 | 93 | 1017.4 |
| 20260502051503 | 48 | 221 | 0.0 | 2.0 | 0.00 | 0.03 | 0.00 | 94 | 1017.1 |
| 20260502051024 | 48 | 221 | 0.0 | 3.0 | 0.00 | 0.03 | 0.00 | 94 | 1017.2 |
| 20260502050524 | 47 | 221 | 0.0 | 3.0 | 0.00 | 0.03 | 0.00 | 94 | 1017.2 |
| 20260502050003 | 47 | 219 | 0.0 | 2.0 | 0.00 | 0.03 | 0.00 | 94 | 1017.3 |
| 20260502045503 | 47 | 214 | 0.0 | 2.0 | 0.00 | 0.03 | 0.00 | 94 | 1017.4 |
| 20260502044504 | 47 | 208 | 0.0 | 1.0 | 0.00 | 0.03 | 0.00 | 94 | 1017.5 |
| 20260502044003 | 47 | 224 | 0.0 | 1.0 | 0.00 | 0.03 | 0.00 | 94 | 1017.6 |
| 20260502043524 | 47 | 223 | 0.0 | 2.0 | 0.00 | 0.03 | 0.00 | 94 | 1017.4 |
| 20260502043004 | 47 | 234 | 1.0 | 2.0 | 0.00 | 0.03 | 0.00 | 94 | 1017.3 |
| 20260502042503 | 47 | 233 | 1.0 | 2.0 | 0.00 | 0.03 | 0.00 | 94 | 1017.4 |
| 20260502042024 | 47 | 217 | 0.0 | 2.0 | 0.00 | 0.03 | 0.00 | 94 | 1017.4 |
| 20260502041503 | 47 | 210 | 1.0 | 3.0 | 0.00 | 0.03 | 0.00 | 94 | 1017.4 |
| 20260502041024 | 47 | 207 | 1.0 | 3.0 | 0.00 | 0.03 | 0.00 | 94 | 1017.3 |
| 20260502040524 | 47 | 206 | 1.0 | 3.0 | 0.00 | 0.03 | 0.00 | 94 | 1017.4 |
| 20260502040024 | 47 | 207 | 0.0 | 2.0 | 0.00 | 0.03 | 0.00 | 94 | 1017.3 |
| 20260502035503 | 47 | 209 | 0.0 | 1.0 | 0.00 | 0.03 | 0.00 | 94 | 1017.3 |
| 20260502035003 | 47 | 207 | 0.0 | 1.0 | 0.00 | 0.03 | 0.00 | 94 | 1017.2 |
| 20260502034503 | 47 | 0 | 0.0 | 0.0 | 0.00 | 0.03 | 0.00 | 94 | 1017.4 |
| 20260502034003 | 47 | 0 | 0.0 | 0.0 | 0.00 | 0.03 | 0.00 | 94 | 1017.5 |
| 20260502033524 | 48 | 0 | 0.0 | 0.0 | 0.00 | 0.03 | 0.00 | 94 | 1017.4 |
| 20260502033003 | 48 | 207 | 0.0 | 1.0 | 0.00 | 0.03 | 0.00 | 94 | 1017.5 |
| 20260502032525 | 48 | 211 | 0.0 | 1.0 | 0.00 | 0.03 | 0.00 | 94 | 1017.4 |
| 20260502032024 | 48 | 219 | 0.0 | 2.0 | 0.00 | 0.03 | 0.00 | 94 | 1017.3 |
| 20260502031524 | 48 | 222 | 0.0 | 2.0 | 0.00 | 0.03 | 0.00 | 93 | 1017.3 |
| 20260502031024 | 48 | 228 | 0.0 | 1.0 | 0.00 | 0.03 | 0.00 | 94 | 1017.4 |
| 20260502030503 | 48 | 228 | 0.0 | 1.0 | 0.00 | 0.03 | 0.00 | 93 | 1017.1 |
| 20260502030003 | 48 | 226 | 0.0 | 2.0 | 0.00 | 0.03 | 0.00 | 93 | 1017.4 |
| 20260502025503 | 48 | 228 | 0.0 | 2.0 | 0.00 | 0.03 | 0.00 | 93 | 1017.6 |
| 20260502025003 | 49 | 232 | 0.0 | 2.0 | 0.00 | 0.03 | 0.00 | 93 | 1017.4 |
| 20260502024524 | 49 | 232 | 0.0 | 2.0 | 0.00 | 0.03 | 0.00 | 93 | 1017.3 |
| 20260502024024 | 49 | 229 | 0.0 | 2.0 | 0.00 | 0.03 | 0.00 | 93 | 1017.6 |
| 20260502023524 | 49 | 226 | 0.0 | 2.0 | 0.00 | 0.03 | 0.00 | 93 | 1017.4 |
| 20260502023003 | 48 | 225 | 0.0 | 2.0 | 0.00 | 0.03 | 0.00 | 93 | 1017.6 |
| 20260502022503 | 48 | 218 | 0.0 | 1.0 | 0.00 | 0.03 | 0.00 | 93 | 1017.6 |
| 20260502022003 | 48 | 0 | 0.0 | 0.0 | 0.00 | 0.03 | 0.00 | 93 | 1017.8 |
| 20260502021524 | 48 | 214 | 0.0 | 1.0 | 0.00 | 0.03 | 0.00 | 93 | 1017.7 |
| 20260502021024 | 48 | 218 | 0.0 | 1.0 | 0.00 | 0.03 | 0.00 | 93 | 1017.9 |
| 20260502020524 | 48 | 223 | 0.0 | 2.0 | 0.00 | 0.03 | 0.00 | 93 | 1017.8 |
| 20260502020003 | 49 | 221 | 1.0 | 2.0 | 0.00 | 0.03 | 0.00 | 93 | 1018.0 |
| 20260502015503 | 49 | 219 | 1.0 | 2.0 | 0.00 | 0.03 | 0.00 | 93 | 1018.0 |
| 20260502015003 | 49 | 228 | 1.0 | 3.0 | 0.00 | 0.03 | 0.00 | 93 | 1017.9 |
| 20260502014503 | 49 | 237 | 1.0 | 3.0 | 0.00 | 0.03 | 0.00 | 93 | 1018.1 |
| 20260502014003 | 49 | 237 | 0.0 | 2.0 | 0.00 | 0.03 | 0.00 | 93 | 1018.2 |
| 20260502013503 | 49 | 221 | 0.0 | 1.0 | 0.00 | 0.03 | 0.00 | 93 | 1017.9 |
| 20260502013003 | 50 | 221 | 0.0 | 1.0 | 0.00 | 0.03 | 0.00 | 93 | 1018.1 |
| 20260502012503 | 50 | 220 | 0.0 | 1.0 | 0.00 | 0.03 | 0.00 | 93 | 1018.3 |
| 20260502012003 | 49 | 0 | 0.0 | 0.0 | 0.00 | 0.03 | 0.00 | 93 | 1018.3 |
| 20260502011503 | 49 | 0 | 0.0 | 0.0 | 0.00 | 0.03 | 0.00 | 93 | 1018.3 |
| 20260502011003 | 49 | 0 | 0.0 | 0.0 | 0.00 | 0.03 | 0.00 | 93 | 1018.4 |
| 20260502010524 | 50 | 0 | 0.0 | 0.0 | 0.00 | 0.03 | 0.00 | 93 | 1018.5 |
| 20260502010003 | 49 | 0 | 0.0 | 0.0 | 0.00 | 0.03 | 0.00 | 93 | 1018.5 |
| 20260502005503 | 50 | 220 | 0.0 | 1.0 | 0.00 | 0.03 | 0.00 | 93 | 1018.3 |
| 20260502005003 | 50 | 220 | 0.0 | 1.0 | 0.00 | 0.03 | 0.00 | 93 | 1018.6 |
| 20260502004504 | 50 | 220 | 0.0 | 1.0 | 0.00 | 0.03 | 0.00 | 93 | 1018.3 |
| 20260502004003 | 50 | 220 | 0.0 | 1.0 | 0.00 | 0.03 | 0.00 | 93 | 1018.4 |
| 20260502003503 | 50 | 220 | 0.0 | 1.0 | 0.00 | 0.03 | 0.00 | 93 | 1018.7 |
| 20260502003024 | 50 | 220 | 0.0 | 2.0 | 0.00 | 0.03 | 0.00 | 93 | 1018.6 |
| 20260502002524 | 50 | 220 | 0.0 | 2.0 | 0.00 | 0.03 | 0.00 | 93 | 1018.5 |
| 20260502002003 | 50 | 221 | 0.0 | 2.0 | 0.00 | 0.03 | 0.00 | 93 | 1018.7 |
| 20260502001524 | 50 | 223 | 0.0 | 2.0 | 0.00 | 0.03 | 0.00 | 93 | 1018.7 |
| 20260502001003 | 50 | 231 | 0.0 | 2.0 | 0.00 | 0.03 | 0.00 | 93 | 1018.7 |
| 20260502000503 | 51 | 240 | 1.0 | 3.0 | 0.00 | 0.03 | 0.00 | 93 | 1018.7 |
| 20260502000004 | 51 | 237 | 1.0 | 3.0 | 0.00 | 0.03 | 0.00 | 93 | 1018.6 |
| 20260501235503 | 51 | 229 | 1.0 | 2.0 | 0.00 | 0.03 | 0.00 | 93 | 1018.8 |
| 20260501235003 | 51 | 232 | 1.0 | 2.0 | 0.00 | 0.03 | 0.00 | 93 | 1018.7 |
| 20260501234503 | 51 | 233 | 1.0 | 2.0 | 0.00 | 0.03 | 0.00 | 93 | 1018.6 |
| 20260501234003 | 51 | 235 | 1.0 | 2.0 | 0.00 | 0.03 | 0.00 | 93 | 1019.0 |
| 20260501233503 | 51 | 233 | 1.0 | 2.0 | 0.00 | 0.03 | 0.00 | 93 | 1018.6 |
| 20260501233003 | 51 | 238 | 1.0 | 3.0 | 0.00 | 0.03 | 0.00 | 93 | 1018.8 |
| 20260501232503 | 51 | 246 | 1.0 | 3.0 | 0.00 | 0.03 | 0.00 | 93 | 1018.8 |
| 20260501232003 | 51 | 259 | 1.0 | 3.0 | 0.00 | 0.03 | 0.00 | 93 | 1018.9 |
| 20260501231503 | 51 | 272 | 1.0 | 3.0 | 0.00 | 0.03 | 0.00 | 93 | 1018.8 |
| 20260501231003 | 51 | 273 | 1.0 | 3.0 | 0.00 | 0.03 | 0.00 | 93 | 1018.9 |
| 20260501230503 | 51 | 274 | 2.0 | 4.0 | 0.00 | 0.03 | 0.00 | 93 | 1018.9 |
| 20260501230003 | 51 | 271 | 2.0 | 4.0 | 0.00 | 0.03 | 0.00 | 93 | 1019.0 |
| 20260501225503 | 52 | 275 | 2.0 | 3.0 | 0.00 | 0.03 | 0.03 | 93 | 1018.8 |
| 20260501225003 | 52 | 279 | 1.0 | 3.0 | 0.00 | 0.03 | 0.03 | 93 | 1018.9 |
| 20260501224524 | 52 | 273 | 1.0 | 2.0 | 0.00 | 0.03 | 0.03 | 93 | 1018.9 |
| 20260501224003 | 52 | 275 | 0.0 | 2.0 | 0.00 | 0.03 | 0.03 | 93 | 1018.9 |
| 20260501223503 | 52 | 275 | 1.0 | 3.0 | 0.00 | 0.03 | 0.03 | 93 | 1018.7 |
| 20260501223003 | 51 | 276 | 1.0 | 3.0 | 0.00 | 0.03 | 0.03 | 93 | 1018.9 |
| 20260501222524 | 51 | 276 | 1.0 | 3.0 | 0.00 | 0.03 | 0.03 | 93 | 1019.2 |
| 20260501222003 | 52 | 275 | 2.0 | 3.0 | 0.00 | 0.03 | 0.03 | 93 | 1018.9 |
| 20260501221503 | 52 | 281 | 1.0 | 3.0 | 0.00 | 0.03 | 0.03 | 93 | 1019.0 |
| 20260501221003 | 52 | 289 | 1.0 | 3.0 | 0.00 | 0.03 | 0.03 | 93 | 1019.1 |
| 20260501220503 | 52 | 281 | 1.0 | 2.0 | 0.00 | 0.03 | 0.03 | 93 | 1019.0 |
| 20260501220024 | 52 | 276 | 1.0 | 2.0 | 0.00 | 0.03 | 0.03 | 93 | 1018.8 |
| 20260501215503 | 52 | 280 | 1.0 | 3.0 | 0.00 | 0.03 | 0.03 | 93 | 1019.0 |
| 20260501215003 | 52 | 279 | 2.0 | 3.0 | 0.00 | 0.03 | 0.03 | 93 | 1019.0 |
| 20260501214503 | 52 | 279 | 1.0 | 3.0 | 0.00 | 0.03 | 0.03 | 93 | 1019.0 |
| 20260501214024 | 52 | 282 | 1.0 | 3.0 | 0.00 | 0.03 | 0.03 | 93 | 1019.4 |
| 20260501213524 | 52 | 280 | 1.0 | 4.0 | 0.00 | 0.03 | 0.03 | 93 | 1019.1 |
| 20260501213003 | 52 | 279 | 1.0 | 4.0 | 0.00 | 0.03 | 0.03 | 93 | 1019.3 |
| 20260501212503 | 52 | 280 | 1.0 | 3.0 | 0.00 | 0.03 | 0.03 | 93 | 1019.1 |
| 20260501212003 | 52 | 279 | 0.0 | 2.0 | 0.00 | 0.03 | 0.03 | 93 | 1019.2 |
| 20260501211524 | 52 | 282 | 1.0 | 3.0 | 0.00 | 0.03 | 0.03 | 93 | 1019.0 |
| 20260501211024 | 52 | 284 | 2.0 | 3.0 | 0.00 | 0.03 | 0.03 | 93 | 1019.2 |
| 20260501210503 | 52 | 283 | 1.0 | 3.0 | 0.00 | 0.03 | 0.03 | 93 | 1019.0 |
| 20260501210003 | 52 | 283 | 1.0 | 3.0 | 0.00 | 0.03 | 0.03 | 93 | 1019.2 |
| 20260501205503 | 52 | 284 | 1.0 | 2.0 | 0.00 | 0.03 | 0.03 | 93 | 1019.2 |
| 20260501205003 | 52 | 285 | 1.0 | 2.0 | 0.00 | 0.03 | 0.03 | 92 | 1019.1 |
| 20260501204503 | 52 | 282 | 1.0 | 3.0 | 0.00 | 0.03 | 0.03 | 92 | 1019.1 |
| 20260501204003 | 52 | 280 | 1.0 | 3.0 | 0.01 | 0.03 | 0.03 | 92 | 1019.2 |
| 20260501203503 | 52 | 291 | 1.0 | 3.0 | 0.01 | 0.03 | 0.03 | 92 | 1019.2 |
| 20260501203003 | 52 | 294 | 2.0 | 3.0 | 0.02 | 0.03 | 0.03 | 92 | 1019.1 |
| 20260501202503 | 52 | 286 | 1.0 | 3.0 | 0.03 | 0.03 | 0.03 | 92 | 1019.2 |
| 20260501202024 | 52 | 285 | 1.0 | 3.0 | 0.03 | 0.03 | 0.03 | 92 | 1019.4 |
| 20260501201503 | 53 | 288 | 2.0 | 3.0 | 0.03 | 0.03 | 0.03 | 92 | 1019.4 |
| 20260501201003 | 53 | 287 | 1.0 | 3.0 | 0.03 | 0.03 | 0.03 | 92 | 1019.4 |
| 20260501200503 | 52 | 285 | 1.0 | 2.0 | 0.03 | 0.03 | 0.03 | 92 | 1019.4 |
| 20260501200003 | 52 | 289 | 1.0 | 3.0 | 0.03 | 0.03 | 0.03 | 92 | 1019.6 |
| 20260501195503 | 52 | 289 | 1.0 | 3.0 | 0.03 | 0.03 | 0.03 | 92 | 1019.4 |
| 20260501195003 | 52 | 290 | 1.0 | 3.0 | 0.03 | 0.03 | 0.03 | 91 | 1019.4 |
| 20260501194503 | 53 | 286 | 2.0 | 6.0 | 0.03 | 0.03 | 0.03 | 91 | 1019.4 |
| 20260501194003 | 52 | 283 | 2.0 | 6.0 | 0.02 | 0.02 | 0.02 | 91 | 1019.4 |
| 20260501193503 | 53 | 288 | 2.0 | 4.0 | 0.02 | 0.02 | 0.02 | 91 | 1019.4 |
| 20260501193003 | 53 | 286 | 2.0 | 3.0 | 0.01 | 0.01 | 0.01 | 91 | 1019.3 |
| 20260501192526 | 53 | 282 | 2.0 | 4.0 | 0.00 | 0.00 | 0.00 | 91 | 1019.3 |
| 20260501192003 | 53 | 278 | 2.0 | 4.0 | 0.00 | 0.00 | 0.00 | 91 | 1019.3 |
| 20260501191503 | 53 | 276 | 2.0 | 4.0 | 0.00 | 0.00 | 0.00 | 90 | 1019.5 |
| 20260501191003 | 53 | 284 | 2.0 | 6.0 | 0.00 | 0.00 | 0.00 | 90 | 1019.3 |
| 20260501190503 | 53 | 284 | 2.0 | 6.0 | 0.00 | 0.00 | 0.00 | 90 | 1019.4 |
| 20260501190004 | 53 | 282 | 2.0 | 4.0 | 0.00 | 0.00 | 0.00 | 90 | 1019.2 |
| 20260501185504 | 53 | 285 | 2.0 | 4.0 | 0.00 | 0.00 | 0.00 | 90 | 1019.1 |
| 20260501185024 | 53 | 283 | 2.0 | 4.0 | 0.00 | 0.00 | 0.00 | 89 | 1019.4 |